CW7625 Weather Reports


Display with metric or nautical units.
time (UTC)temp
F
wind
direction
speed
MPH
gust
MPH
rain 1hr
in
rain 24hr
in
rain mn
in
humidity
%
barometer
mb
20260505100046 69 234 1.0 5.0 0.00 0.00 0.00 84 1002.9
20260505095046 69 219 0.0 4.0 0.00 0.00 0.00 84 1002.9
20260505094046 69 242 1.0 6.0 0.00 0.00 0.00 84 1003.0
20260505092046 69 279 1.0 5.0 0.00 0.00 0.00 84 1002.9
20260505091046 68 231 2.0 6.0 0.00 0.00 0.00 84 1003.0
20260505090045 68 242 0.0 6.0 0.00 0.00 0.00 83 1003.2
20260505085046 68 241 0.0 9.0 0.00 0.00 0.00 83 1003.3
20260505084045 68 202 2.0 5.0 0.00 0.00 0.00 83 1003.5
20260505082045 68 204 2.0 9.0 0.00 0.00 0.00 83 1003.4
20260505081045 68 234 2.0 6.0 0.00 0.00 0.00 83 1003.6
20260505080046 68 213 2.0 4.0 0.00 0.00 0.00 82 1003.5
20260505075046 68 212 0.0 9.0 0.00 0.00 0.00 82 1003.6
20260505073046 68 226 2.0 7.0 0.00 0.00 0.00 81 1004.0
20260505072046 68 192 5.0 6.0 0.00 0.00 0.00 81 1004.1
20260505071046 67 232 2.0 5.0 0.00 0.00 0.00 80 1004.2
20260505070046 68 232 1.0 4.0 0.00 0.00 0.00 80 1004.4
20260505065046 68 232 0.0 3.0 0.00 0.00 0.00 79 1004.6
20260505064046 68 232 1.0 4.0 0.00 0.00 0.00 78 1004.7
20260505063046 68 238 1.0 4.0 0.00 0.00 0.00 78 1004.7
20260505062046 68 176 1.0 5.0 0.00 0.00 0.00 77 1004.8
20260505061046 68 254 0.0 3.0 0.00 0.00 0.00 77 1004.8
20260505060046 68 254 2.0 4.0 0.00 0.00 0.00 77 1004.9
20260505055046 67 236 0.0 3.0 0.00 0.00 0.00 76 1005.0
20260505054046 67 236 0.0 3.0 0.00 0.00 0.00 76 1005.2
20260505053046 67 265 2.0 2.0 0.00 0.00 0.00 76 1005.2
20260505052046 67 265 0.0 3.0 0.00 0.00 0.00 75 1005.1
20260505051046 67 265 2.0 2.0 0.00 0.00 0.00 76 1005.3
20260505050116 68 265 0.0 1.0 0.00 0.00 0.00 75 1005.3
20260505041046 66 265 0.0 3.0 0.00 0.00 0.00 79 1005.8
20260505040046 65 279 0.0 1.0 0.00 0.00 0.00 82 1005.9
20260505034046 64 279 0.0 0.0 0.00 0.00 0.00 83 1005.9
20260505033046 64 279 0.0 0.0 0.00 0.00 0.00 85 1005.9
20260505032047 64 279 0.0 0.0 0.00 0.00 0.00 83 1006.0
20260505031046 64 279 0.0 0.0 0.00 0.00 0.00 82 1005.9
20260505030046 65 279 0.0 0.0 0.00 0.00 0.00 81 1005.8
20260505025046 65 279 0.0 0.0 0.00 0.00 0.00 81 1005.7
20260505024046 66 279 0.0 1.0 0.00 0.00 0.00 80 1005.4
20260505023046 67 279 0.0 1.0 0.00 0.00 0.00 78 1005.6
20260505022047 67 279 0.0 1.0 0.00 0.00 0.00 76 1005.7
20260505020047 69 279 1.0 1.0 0.00 0.00 0.00 74 1005.5
20260505015047 70 279 0.0 1.0 0.00 0.00 0.00 72 1005.4
20260505014047 70 279 0.0 3.0 0.00 0.00 0.00 71 1005.3
20260505012046 72 279 1.0 2.0 0.00 0.00 0.00 67 1005.0
20260505011046 73 279 0.0 1.0 0.00 0.00 0.00 66 1005.0
20260505010046 74 279 0.0 5.0 0.00 0.00 0.00 63 1004.9
20260505005046 74 208 1.0 5.0 0.00 0.00 0.00 61 1004.7
20260505004046 75 225 0.0 4.0 0.00 0.00 0.00 62 1004.8
20260505002047 76 329 3.0 8.0 0.00 0.00 0.00 59 1005.1
20260505001047 76 194 2.0 6.0 0.00 0.00 0.00 59 1005.2
20260505000046 77 182 2.0 9.0 0.00 0.00 0.00 57 1005.3
20260504235046 77 218 2.0 8.0 0.00 0.00 0.00 57 1005.2
20260504234046 78 221 3.0 10.0 0.00 0.00 0.00 56 1005.5
20260504233046 78 153 4.0 11.0 0.00 0.00 0.00 55 1005.5
20260504232046 78 258 1.0 12.0 0.00 0.00 0.00 55 1005.5
20260504231047 78 216 4.0 10.0 0.00 0.00 0.00 55 1005.6
20260504230047 78 167 3.0 10.0 0.00 0.00 0.00 55 1005.6
20260504225046 78 209 1.0 9.0 0.00 0.00 0.00 56 1005.7
20260504224047 78 234 2.0 9.0 0.00 0.00 0.00 55 1005.8
20260504223046 79 237 1.0 9.0 0.00 0.00 0.00 54 1006.0
20260504222047 79 248 2.0 7.0 0.00 0.00 0.00 55 1005.9
20260504221047 79 241 3.0 11.0 0.00 0.00 0.00 54 1006.1
20260504220046 79 186 2.0 10.0 0.00 0.00 0.00 54 1006.2
20260504215047 79 211 4.0 10.0 0.00 0.00 0.00 52 1006.3
20260504214117 79 209 1.0 12.0 0.00 0.00 0.00 54 1006.4
20260504212047 81 21 5.0 11.0 0.00 0.00 0.00 50 1006.7
20260504211046 81 171 6.0 11.0 0.00 0.00 0.00 49 1007.2
20260504205047 80 246 2.0 9.0 0.00 0.00 0.00 51 1007.5
20260504204047 80 240 5.0 11.0 0.00 0.00 0.00 49 1007.8
20260504203047 80 273 7.0 15.0 0.00 0.00 0.00 52 1007.8
20260504201047 80 230 5.0 11.0 0.00 0.00 0.00 50 1008.2
20260504200047 80 221 2.0 17.0 0.00 0.00 0.00 52 1008.4
20260504195047 80 244 4.0 11.0 0.00 0.00 0.00 52 1008.7
20260504194047 80 218 4.0 11.0 0.00 0.00 0.00 49 1008.6
20260504192047 80 238 6.0 16.0 0.00 0.00 0.00 50 1009.1
20260504191047 80 246 7.0 12.0 0.00 0.00 0.00 51 1009.3
20260504190047 79 265 3.0 10.0 0.00 0.00 0.00 49 1009.4
20260504185047 80 246 3.0 10.0 0.00 0.00 0.00 50 1009.4
20260504184047 79 41 2.0 9.0 0.00 0.00 0.00 52 1009.5
20260504183047 79 265 3.0 11.0 0.00 0.00 0.00 51 1009.9
20260504182047 78 214 3.0 11.0 0.00 0.00 0.00 54 1010.0
20260504181047 78 230 6.0 14.0 0.00 0.00 0.00 54 1010.0
20260504180047 78 167 9.0 12.0 0.00 0.00 0.00 52 1010.3
20260504175047 77 302 2.0 13.0 0.00 0.00 0.00 53 1010.6
20260504174047 77 242 3.0 11.0 0.00 0.00 0.00 56 1010.7
20260504173047 77 225 4.0 11.0 0.00 0.00 0.00 50 1010.9
20260504172047 77 227 7.0 15.0 0.00 0.00 0.00 51 1011.2
20260504171047 77 103 4.0 10.0 0.00 0.00 0.00 55 1011.1
20260504141048 68 215 3.0 10.0 0.00 0.00 0.00 68 1012.0